カタログに戻る

ATLAS 5 CENTAUR DEB

運用中HEO
NORAD 43972·DEBRIS·🇺🇸 United States

打ち上げ Sep 17, 2014 から Cape Canaveral Space Force Station

Loading…

次のパス (今後24時間)

TLE

経年Source: Space-Track

元期: Aug 26, 2026, 09:35 UTC

1 43972U 14055AB  26238.39962630 -.00000108  00000-0  00000-0 0  9999
2 43972  20.2029 137.1039 4743786 175.7182 190.5293  1.85390759 54023

AllMySatでATLAS 5 CENTAUR DEBをリアルタイム追跡

Download on the App Store